Regional Weather Roundup
Issued by NWS Charleston, WV

Home | Current Version | Previous Version | Text Only | Print | Product List | Glossary Off
Versions: 1 2 3 4 5 6 7 8 9 10 11 12 13 14 15 16 17 18 19 20 21 22 23 24 25 26 27 28 29 30 31 32 33 34 35 36 37 38 39 40 41 42 43 44 45 46 47 48 49 50

790
ASUS41 KRLX 290710
RWRRLX
West Virginia Regional Weather Roundup
National Weather Service Charleston WV
300 AM EDT WED MAR 29 2017

Note: "fair" indicates few or no clouds below 12,000 feet with no
significant weather and/or obstructions to visibility.

WVZ003-290800-
Northern Panhandle of West Virginia

CITY           SKY/WX    TMP DP  RH WIND       PRES   REMARKS
WHEELING       CLOUDY    45  40  82 N10       30.12F
$$

WVZ009-290800-
Northwest West Virginia

CITY           SKY/WX    TMP DP  RH WIND       PRES   REMARKS
PARKERSBURG    CLOUDY    47  42  83 N6        30.16R
$$

WVZ006-290800-
Western West Virginia

CITY           SKY/WX    TMP DP  RH WIND       PRES   REMARKS
HUNTINGTON     CLOUDY    54  47  77 N8        30.10S
$$

WVZ015-290800-
West Central West Virginia

CITY           SKY/WX    TMP DP  RH WIND       PRES   REMARKS
CHARLESTON     CLOUDY    55  45  68 VRB5      30.09S
$$

WVZ022-031-290800-
North Central West Virginia

CITY           SKY/WX    TMP DP  RH WIND       PRES   REMARKS
CLARKSBURG     CLOUDY    50  44  80 NE9       30.10R
MORGANTOWN     CLOUDY    48  41  76 N7        30.11S
$$

WVZ025-035-042-045-290800-
Southern West Virginia

CITY           SKY/WX    TMP DP  RH WIND       PRES   REMARKS
BECKLEY        CLOUDY    51  48  89 NW7       30.09S
LOGAN          CLOUDY    54  52  94 CALM      30.08F
BLUEFIELD      CLOUDY    50  49  96 VRB3      30.09S
LEWISBURG      CLOUDY    54  48  81 CALM      30.06S
$$

WVZ047-290800-
Northern Mountains of West Virginia

CITY           SKY/WX    TMP DP  RH WIND       PRES   REMARKS
ELKINS         CLOUDY    51  46  83 N3        30.09R
$$

WVZ052-290800-
Eastern Panhandle of West Virginia

CITY           SKY/WX    TMP DP  RH WIND       PRES   REMARKS
MARTINSBURG    CLOUDY    58  50  75 N5        30.01R
PETERSBURG     MOCLDY    58  48  70 NE6       30.05S
$$




USA.gov is the U.S. government's official web portal to all federal, state and local government web resources and services.